Regional Weather Roundup
Issued by NWS

Home | Current Version | Previous Version | Graphics & Text | Print | Product List | Glossary On
Versions: 1 2 3 4 5 6 7 8 9 10 11 12 13 14 15 16 17 18 19 20 21 22 23 24 25 26 27 28 29 30 31 32 33 34 35 36 37 38 39 40 41 42 43 44 45 46 47 48 49 50
000
ASUS43 KLSX 102157
RWRMO

WEATHER SUMMARY FOR MISSOURI
NATIONAL WEATHER SERVICE SPRINGFIELD MO
400 PM CST SUN DEC 10 2017

NOTE: "FAIR" INDICATES FEW OR NO CLOUDS BELOW 12,000 FEET WITH NO
       SIGNIFICANT WEATHER AND/OR OBSTRUCTIONS TO VISIBILITY.
       CURRENT SKY AND/OR WEATHER CONDITIONS ARE NOT AVAILABLE FOR
       CHILLICOTHE AND FARMINGTON.

MOZ001>031-035>038-043-044-053-054-102300-
...NORTHERN AND WESTERN MISSOURI...

CITY           SKY/WX    TMP DP  RH WIND       PRES   REMARKS
KANSAS CTY INT CLOUDY    56  24  29 NW12      30.12R
LEE`S SUMMIT   CLEAR     56  25  30 W12       30.11R
ST JOSEPH      CLOUDY    53  26  35 NW9       30.12R
CHILLICOTHE      N/A     51  25  36 NW8       30.11R

$$
MOZ066>068-077>081-088>096-101>105-102300-
...SOUTHWEST MISSOURI...

CITY           SKY/WX    TMP DP  RH WIND       PRES   REMARKS
SPRINGFIELD    CLEAR     55  24  30 W15G21    30.12S
JOPLIN         CLEAR     58  23  26 W10       30.15F
BRANSON        CLEAR     55  23  28 W9G23     30.14R

$$
MOZ032>034-039>042-045>050-055>058-069>072-102300-
...CENTRAL MISSOURI...

CITY           SKY/WX    TMP DP  RH WIND       PRES   REMARKS
COLUMBIA       NOT AVBL
JEFFERSON CITY CLEAR     54  25  32 W12       30.08R
ROLLA          CLEAR     52  25  35 W12G21    30.07R
SEDALIA        CLEAR     54  27  35 W9        30.11R
WARRENSBURG    CLEAR     55  27  33 W7        30.10R

$$
MOZ051-052-059>065-102300-
...EAST CENTRAL MISSOURI...

CITY           SKY/WX    TMP DP  RH WIND       PRES   REMARKS
ST LOUIS INTL  MOCLDY    50  25  37 NW12      30.04R

$$
MOZ072>076-082>087-097>100-106>115-102300-
...SOUTH CENTRAL AND SOUTHEAST MISSOURI...

CITY           SKY/WX    TMP DP  RH WIND       PRES   REMARKS
CAPE GIRARDEAU CLEAR     49  30  48 S12       30.06R
POPLAR BLUFF   CLEAR     53  32  44 SW13      30.06S
WEST PLAINS    CLEAR     58  21  24 W9        30.08S

$$


USA.gov is the U.S. government's official web portal to all federal, state and local government web resources and services.